Date String (YYYY-MM-DD hh:mm:ss) UTC,Instrument flags,Ambient pressure (hPa),Sample flow (lpm),Bypass flow (lpm),Sample temperature (°C),Ambient temperature (°C),ASC tube jacket temperature (°C),LED temperature (°C),Box temperature (°C),Sample RH (%),Span deviation,Mass concentration (μg/m³),Mass concentration (μg/m³),Mass concentration (μg/m³)
DateTimeUTC,F1_M11,P_M11,Q1_M11,Q2_M11,T1_M11,T2_M11,T3_M11,T4_M11,T5_M11,U1_M11,ZSPAN_M11,X0_M11,X2_M11,X1_M11
2022-11-24 01:00:00,,0823.4,4.99,0.00,21.7,20.5,00.0,30.5,23.4,09.8,0000.0,0001.02,0000.66,0000.57
2022-11-24 01:01:00,,0823.4,5.01,0.00,21.7,20.4,00.0,30.5,23.4,09.9,0000.0,0001.03,0000.67,0000.58
2022-11-24 01:02:00,,0823.5,4.99,0.00,21.7,20.3,00.0,30.5,23.4,10.0,0000.0,0001.04,0000.68,0000.58
2022-11-24 01:03:00,,0823.5,5.00,0.00,21.7,20.3,00.0,30.5,23.4,10.0,0000.0,0001.10,0000.71,0000.58
2022-11-24 01:04:00,,0823.6,5.01,0.00,21.6,20.3,00.0,30.5,23.3,10.2,0000.0,0001.15,0000.73,0000.59
2022-11-24 01:05:00,,0823.7,4.99,0.00,21.6,20.3,00.0,30.6,23.3,10.3,0000.0,0001.18,0000.74,0000.59
2022-11-24 01:06:00,,0823.7,4.99,0.00,21.6,20.3,00.0,30.6,23.5,10.5,0000.0,0001.26,0000.77,0000.60
2022-11-24 01:07:00,,0823.7,5.02,0.00,21.6,20.3,00.0,30.6,23.5,10.3,0000.0,0001.27,0000.78,0000.60
2022-11-24 01:08:00,,0823.7,5.00,0.00,21.7,20.4,00.0,30.6,23.5,10.3,0000.0,0002.11,0000.79,0000.60
2022-11-24 01:09:00,,0823.8,4.99,0.00,21.7,20.4,00.0,30.6,23.5,10.5,0000.0,0002.19,0000.80,0000.60
2022-11-24 01:10:00,,0823.9,5.01,0.00,21.7,20.5,00.0,30.6,23.5,10.3,0000.0,0002.05,0000.78,0000.60
2022-11-24 01:11:00,,0823.9,5.01,0.00,21.7,20.5,00.0,30.6,23.6,10.2,0000.0,0002.03,0000.77,0000.60
2022-11-24 01:12:00,,0823.9,5.00,0.00,21.7,20.5,00.0,30.6,23.5,10.4,0000.0,0002.02,0000.76,0000.60
2022-11-24 01:13:00,,0824.0,4.99,0.00,21.7,20.5,00.0,30.6,23.5,10.6,0000.0,0002.05,0000.77,0000.61
2022-11-24 01:14:00,,0824.0,5.00,0.00,21.7,20.5,00.0,30.6,23.5,10.6,0000.0,0002.00,0000.75,0000.61
2022-11-24 01:15:00,,0824.0,4.99,0.00,21.7,20.6,00.0,30.6,23.6,10.6,0000.0,0001.96,0000.73,0000.61
2022-11-24 01:16:00,,0824.0,4.99,0.00,21.7,20.6,00.0,30.6,23.6,10.7,0000.0,0001.92,0000.72,0000.61
2022-11-24 01:17:00,,0824.1,5.01,0.00,21.7,20.6,00.0,30.6,23.6,10.4,0000.0,0002.53,0000.69,0000.60
2022-11-24 01:18:00,,0824.1,5.01,0.00,21.7,20.6,00.0,30.6,23.7,09.7,0000.0,0002.90,0000.70,0000.61
2022-11-24 01:19:00,,0824.1,4.99,0.00,21.8,20.6,00.0,30.7,23.7,09.5,0000.0,0003.05,0000.73,0000.62
2022-11-24 01:20:00,,0824.1,5.01,0.00,21.8,20.7,00.0,30.7,23.7,09.5,0000.0,0003.37,0000.74,0000.62
2022-11-24 01:21:00,,0824.1,5.00,0.00,21.8,20.7,00.0,30.7,23.7,09.5,0000.0,0003.45,0000.77,0000.63
2022-11-24 01:22:00,,0824.1,5.00,0.00,21.8,20.7,00.0,30.7,23.6,09.4,0000.0,0003.45,0000.79,0000.65
2022-11-24 01:23:00,,0824.1,5.00,0.00,21.8,20.7,00.0,30.7,23.6,09.3,0000.0,0003.49,0000.80,0000.65
2022-11-24 01:24:00,,0824.1,5.00,0.00,21.8,20.7,00.0,30.7,23.7,09.6,0000.0,0003.52,0000.80,0000.65
2022-11-24 01:25:00,,0824.1,5.00,0.00,21.8,20.7,00.0,30.7,23.8,09.5,0000.0,0003.61,0000.82,0000.66
2022-11-24 01:26:00,,0824.2,5.00,0.00,21.8,20.6,00.0,30.7,23.8,09.4,0000.0,0003.60,0000.82,0000.66
2022-11-24 01:27:00,,0824.2,5.00,0.00,21.8,20.6,00.0,30.7,23.8,09.2,0000.0,0003.60,0000.83,0000.66
2022-11-24 01:28:00,,0824.2,5.00,0.00,21.8,20.6,00.0,30.7,23.8,09.3,0000.0,0003.07,0000.83,0000.67
2022-11-24 01:29:00,,0824.2,5.00,0.00,21.8,20.6,00.0,30.7,23.7,09.4,0000.0,0002.58,0000.83,0000.66
2022-11-24 01:30:00,,0824.2,5.00,0.00,21.8,20.6,00.0,30.7,23.8,09.6,0000.0,0001.85,0000.80,0000.66
2022-11-24 01:31:00,,0824.2,5.00,0.00,21.8,20.6,00.0,30.7,23.8,09.7,0000.0,0001.28,0000.81,0000.65
2022-11-24 01:32:00,,0824.3,5.00,0.00,21.8,20.6,00.0,30.7,23.8,09.7,0000.0,0001.24,0000.78,0000.64
2022-11-24 01:33:00,,0824.3,5.00,0.00,21.8,20.6,00.0,30.7,23.7,09.7,0000.0,0001.20,0000.75,0000.63
2022-11-24 01:34:00,,0824.3,5.01,0.00,21.8,20.6,00.0,30.7,23.7,09.7,0000.0,0001.17,0000.74,0000.61
2022-11-24 01:35:00,,0824.4,5.00,0.00,21.8,20.6,00.0,30.7,23.8,09.7,0000.0,0001.12,0000.72,0000.60
2022-11-24 01:36:00,,0824.4,5.00,0.00,21.8,20.7,00.0,30.7,23.8,09.9,0000.0,0001.17,0000.68,0000.58
2022-11-24 01:37:00,,0824.4,5.00,0.00,21.8,20.7,00.0,30.7,23.8,10.1,0000.0,0001.64,0000.69,0000.58
2022-11-24 01:38:00,,0824.4,4.99,0.00,21.9,20.7,00.0,30.7,23.7,10.0,0000.0,0001.65,0000.68,0000.57
2022-11-24 01:39:00,,0824.6,4.99,0.00,21.9,20.7,00.0,30.7,23.7,10.3,0000.0,0001.68,0000.69,0000.58
2022-11-24 01:40:00,,0824.5,5.00,0.00,21.9,20.7,00.0,30.7,23.8,10.4,0000.0,0001.66,0000.69,0000.59
2022-11-24 01:41:00,,0824.4,5.00,0.00,21.9,20.7,00.0,30.8,23.8,09.9,0000.0,0001.77,0000.72,0000.61
2022-11-24 01:42:00,,0824.5,5.00,0.00,21.9,20.7,00.0,30.8,23.8,10.0,0000.0,0001.75,0000.72,0000.64
2022-11-24 01:43:00,,0824.6,4.98,0.00,21.9,20.7,00.0,30.8,23.7,10.1,0000.0,0001.79,0000.75,0000.67
2022-11-24 01:44:00,,0824.7,5.01,0.00,21.9,20.7,00.0,30.8,23.8,10.1,0000.0,0001.86,0000.79,0000.69
2022-11-24 01:45:00,,0824.6,4.99,0.00,21.9,20.7,00.0,30.8,23.8,10.1,0000.0,0002.09,0000.85,0000.72
2022-11-24 01:46:00,,0824.6,4.99,0.00,21.9,20.7,00.0,30.8,23.8,10.2,0000.0,0002.25,0000.90,0000.76
2022-11-24 01:47:00,,0824.7,5.01,0.00,21.9,20.7,00.0,30.8,23.8,09.9,0000.0,0002.35,0000.96,0000.79
2022-11-24 01:48:00,,0824.7,5.01,0.00,21.9,20.7,00.0,30.8,23.8,09.9,0000.0,0001.82,0001.02,0000.83
2022-11-24 01:49:00,,0824.7,4.98,0.00,21.9,20.7,00.0,30.8,23.8,10.1,0000.0,0001.89,0001.07,0000.86
2022-11-24 01:50:00,,0824.8,5.02,0.00,21.9,20.7,00.0,30.8,23.8,10.3,0000.0,0001.93,0001.10,0000.88
2022-11-24 01:51:00,,0824.8,5.00,0.00,21.9,20.7,00.0,30.8,23.8,10.1,0000.0,0001.99,0001.13,0000.90
2022-11-24 01:52:00,,0824.8,5.00,0.00,21.9,20.7,00.0,30.8,23.8,09.9,0000.0,0001.99,0001.16,0000.92
2022-11-24 01:53:00,,0824.9,5.00,0.00,21.9,20.7,00.0,30.8,23.8,09.9,0000.0,0002.01,0001.17,0000.93
2022-11-24 01:54:00,,0824.9,5.00,0.00,21.9,20.7,00.0,30.8,23.8,10.0,0000.0,0001.99,0001.16,0000.92
2022-11-24 01:55:00,,0824.9,4.99,0.00,21.9,20.7,00.0,30.8,23.8,10.0,0000.0,0002.02,0001.17,0000.93
2022-11-24 01:56:00,,0824.9,5.01,0.00,21.9,20.7,00.0,30.8,23.8,10.1,0000.0,0002.57,0001.16,0000.94
2022-11-24 01:57:00,,0824.9,5.01,0.00,21.9,20.7,00.0,30.8,23.8,10.1,0000.0,0002.78,0001.16,0000.95
2022-11-24 01:58:00,,0824.9,5.00,0.00,21.9,20.8,00.0,30.8,23.8,10.2,0000.0,0002.78,0001.15,0000.96
2022-11-24 01:59:00,,0824.9,5.00,0.00,21.9,20.8,00.0,30.8,23.8,10.0,0000.0,0002.77,0001.14,0000.96
